| time (UTC) | temp F | wind direction | speed MPH | gust MPH | rain 1hr in | rain 24hr in | rain mn in | humidity % | barometer mb |
| 20260504003008 | 51 | 263 | 2.0 | 2.0 | 0.00 | 0.00 | 0.00 | 66 | 1018.6 |
| 20260504002008 | 51 | 264 | 2.0 | 3.0 | 0.00 | 0.00 | 0.00 | 66 | 1018.7 |
| 20260504001008 | 50 | 268 | 2.0 | 2.0 | 0.00 | 0.00 | 0.00 | 66 | 1018.6 |
| 20260504000008 | 51 | 277 | 2.0 | 2.0 | 0.00 | 0.00 | 0.00 | 64 | 1018.8 |
| 20260503235008 | 51 | 268 | 2.0 | 2.0 | 0.00 | 0.00 | 0.00 | 63 | 1018.9 |
| 20260503234008 | 51 | 260 | 2.0 | 2.0 | 0.00 | 0.00 | 0.00 | 63 | 1018.9 |
| 20260503233008 | 51 | 267 | 2.0 | 2.0 | 0.00 | 0.00 | 0.00 | 63 | 1018.9 |
| 20260503232008 | 52 | 278 | 2.0 | 2.0 | 0.00 | 0.00 | 0.00 | 62 | 1019.0 |
| 20260503231008 | 51 | 270 | 2.0 | 3.0 | 0.00 | 0.00 | 0.00 | 63 | 1018.9 |
| 20260503230008 | 51 | 216 | 2.0 | 3.0 | 0.00 | 0.00 | 0.00 | 63 | 1018.9 |
| 20260503225008 | 52 | 269 | 2.0 | 3.0 | 0.00 | 0.00 | 0.00 | 62 | 1019.0 |
| 20260503224008 | 51 | 265 | 2.0 | 3.0 | 0.00 | 0.00 | 0.00 | 63 | 1018.9 |
| 20260503223008 | 52 | 266 | 2.0 | 3.0 | 0.00 | 0.00 | 0.00 | 63 | 1018.9 |
| 20260503222008 | 52 | 266 | 2.0 | 3.0 | 0.00 | 0.00 | 0.00 | 63 | 1019.0 |
| 20260503221008 | 52 | 275 | 2.0 | 3.0 | 0.00 | 0.00 | 0.00 | 64 | 1018.9 |
| 20260503220008 | 52 | 268 | 2.0 | 3.0 | 0.00 | 0.00 | 0.00 | 65 | 1018.9 |
| 20260503215008 | 52 | 273 | 2.0 | 3.0 | 0.00 | 0.00 | 0.00 | 66 | 1018.8 |
| 20260503214008 | 51 | 263 | 2.0 | 2.0 | 0.00 | 0.00 | 0.00 | 67 | 1018.8 |
| 20260503213008 | 51 | 260 | 1.0 | 2.0 | 0.00 | 0.00 | 0.00 | 67 | 1018.8 |
| 20260503212008 | 52 | 273 | 2.0 | 2.0 | 0.00 | 0.00 | 0.00 | 65 | 1018.8 |
| 20260503211008 | 52 | 279 | 2.0 | 2.0 | 0.00 | 0.00 | 0.00 | 65 | 1018.9 |
| 20260503210008 | 52 | 281 | 1.0 | 2.0 | 0.00 | 0.00 | 0.00 | 64 | 1019.0 |
| 20260503205008 | 53 | 275 | 1.0 | 2.0 | 0.00 | 0.00 | 0.00 | 62 | 1019.1 |
| 20260503204008 | 53 | 266 | 2.0 | 3.0 | 0.00 | 0.00 | 0.00 | 61 | 1019.0 |
| 20260503203008 | 54 | 267 | 2.0 | 3.0 | 0.00 | 0.00 | 0.00 | 61 | 1019.0 |
| 20260503202008 | 54 | 264 | 2.0 | 3.0 | 0.00 | 0.00 | 0.00 | 60 | 1019.1 |
| 20260503201008 | 54 | 266 | 2.0 | 3.0 | 0.00 | 0.00 | 0.00 | 59 | 1019.2 |
| 20260503200009 | 55 | 264 | 2.0 | 3.0 | 0.00 | 0.00 | 0.00 | 58 | 1019.2 |
| 20260503195008 | 56 | 263 | 2.0 | 4.0 | 0.00 | 0.00 | 0.00 | 56 | 1019.3 |
| 20260503194008 | 55 | 270 | 2.0 | 3.0 | 0.00 | 0.00 | 0.00 | 56 | 1019.2 |
| 20260503193008 | 56 | 251 | 2.0 | 3.0 | 0.00 | 0.00 | 0.00 | 53 | 1019.2 |
| 20260503192008 | 58 | 258 | 2.0 | 3.0 | 0.00 | 0.00 | 0.00 | 51 | 1019.3 |
| 20260503191008 | 58 | 255 | 2.0 | 3.0 | 0.00 | 0.00 | 0.00 | 52 | 1019.3 |
| 20260503190009 | 58 | 256 | 3.0 | 4.0 | 0.00 | 0.00 | 0.00 | 52 | 1019.2 |
| 20260503185009 | 58 | 252 | 3.0 | 5.0 | 0.00 | 0.00 | 0.00 | 51 | 1019.0 |
| 20260503184008 | 58 | 254 | 3.0 | 4.0 | 0.00 | 0.00 | 0.00 | 52 | 1018.8 |
| 20260503183008 | 59 | 257 | 3.0 | 4.0 | 0.00 | 0.00 | 0.00 | 51 | 1018.9 |
| 20260503182008 | 60 | 261 | 2.0 | 4.0 | 0.00 | 0.00 | 0.00 | 50 | 1019.1 |
| 20260503181008 | 60 | 274 | 3.0 | 4.0 | 0.00 | 0.00 | 0.00 | 50 | 1019.0 |
| 20260503180008 | 61 | 261 | 3.0 | 4.0 | 0.00 | 0.00 | 0.00 | 49 | 1019.1 |
| 20260503175008 | 62 | 268 | 3.0 | 4.0 | 0.00 | 0.00 | 0.00 | 49 | 1019.0 |
| 20260503174008 | 62 | 272 | 3.0 | 4.0 | 0.00 | 0.00 | 0.00 | 50 | 1019.0 |
| 20260503173008 | 62 | 295 | 3.0 | 4.0 | 0.00 | 0.00 | 0.00 | 49 | 1019.0 |
| 20260503172008 | 63 | 303 | 3.0 | 4.0 | 0.00 | 0.00 | 0.00 | 47 | 1019.1 |
| 20260503171008 | 63 | 307 | 3.0 | 5.0 | 0.00 | 0.00 | 0.00 | 46 | 1019.2 |
| 20260503151008 | 67 | 269 | 5.0 | 6.0 | 0.00 | 0.00 | 0.00 | 33 | 1019.7 |
| 20260503131008 | 66 | 284 | 4.0 | 5.0 | 0.00 | 0.00 | 0.00 | 35 | 1020.3 |
| 20260503081008 | 59 | 238 | 6.0 | 8.0 | 0.00 | 0.00 | 0.00 | 40 | 1020.3 |
| 20260503072008 | 56 | 277 | 4.0 | 6.0 | 0.00 | 0.00 | 0.00 | 43 | 1019.8 |
| 20260503071008 | 56 | 284 | 4.0 | 5.0 | 0.00 | 0.00 | 0.00 | 45 | 1019.8 |
| 20260503055008 | 48 | 280 | 1.0 | 1.0 | 0.00 | 0.00 | 0.00 | 61 | 1018.7 |
| 20260503054008 | 47 | 260 | 1.0 | 1.0 | 0.00 | 0.00 | 0.00 | 63 | 1018.6 |
| 20260503053008 | 46 | 277 | 1.0 | 1.0 | 0.00 | 0.00 | 0.00 | 65 | 1018.4 |
| 20260503052008 | 45 | 276 | 1.0 | 1.0 | 0.00 | 0.00 | 0.00 | 66 | 1018.2 |
| 20260503051008 | 44 | 280 | 1.0 | 1.0 | 0.00 | 0.00 | 0.00 | 67 | 1018.1 |
| 20260503050008 | 44 | 275 | 1.0 | 2.0 | 0.00 | 0.00 | 0.00 | 66 | 1018.0 |
| 20260503045008 | 44 | 269 | 1.0 | 2.0 | 0.00 | 0.00 | 0.00 | 66 | 1018.1 |
| 20260503044008 | 43 | 275 | 1.0 | 2.0 | 0.00 | 0.00 | 0.00 | 68 | 1018.0 |
| 20260503043008 | 43 | 257 | 1.0 | 2.0 | 0.00 | 0.00 | 0.00 | 69 | 1017.9 |
| 20260503042008 | 42 | 266 | 1.0 | 2.0 | 0.00 | 0.00 | 0.00 | 69 | 1017.9 |
| 20260503041008 | 42 | 257 | 1.0 | 2.0 | 0.00 | 0.00 | 0.00 | 69 | 1017.8 |
| 20260503040008 | 42 | 265 | 1.0 | 1.0 | 0.00 | 0.00 | 0.00 | 70 | 1017.7 |
| 20260503035008 | 42 | 265 | 1.0 | 2.0 | 0.00 | 0.00 | 0.00 | 70 | 1017.8 |
| 20260503034008 | 42 | 271 | 1.0 | 2.0 | 0.00 | 0.00 | 0.00 | 70 | 1017.8 |
| 20260503033008 | 42 | 276 | 1.0 | 1.0 | 0.00 | 0.00 | 0.00 | 70 | 1017.9 |
| 20260503032008 | 43 | 270 | 1.0 | 2.0 | 0.00 | 0.00 | 0.00 | 69 | 1018.0 |
| 20260503031008 | 42 | 267 | 1.0 | 2.0 | 0.00 | 0.00 | 0.00 | 71 | 1017.9 |
| 20260503030008 | 42 | 267 | 1.0 | 2.0 | 0.00 | 0.00 | 0.00 | 71 | 1017.9 |
| 20260503025008 | 43 | 269 | 1.0 | 2.0 | 0.00 | 0.00 | 0.00 | 70 | 1018.0 |
| 20260503024008 | 43 | 278 | 1.0 | 2.0 | 0.00 | 0.00 | 0.00 | 68 | 1018.1 |
| 20260503023008 | 43 | 258 | 1.0 | 2.0 | 0.00 | 0.00 | 0.00 | 68 | 1018.2 |
| 20260503022008 | 43 | 259 | 2.0 | 2.0 | 0.00 | 0.00 | 0.00 | 70 | 1018.2 |
| 20260503021008 | 42 | 226 | 1.0 | 2.0 | 0.00 | 0.00 | 0.00 | 72 | 1018.1 |
| 20260503020008 | 42 | 262 | 2.0 | 2.0 | 0.00 | 0.00 | 0.00 | 74 | 1018.1 |
| 20260503015008 | 42 | 262 | 1.0 | 2.0 | 0.00 | 0.00 | 0.00 | 72 | 1018.2 |
| 20260503014008 | 42 | 258 | 1.0 | 2.0 | 0.00 | 0.00 | 0.00 | 71 | 1018.3 |
| 20260503013008 | 43 | 269 | 1.0 | 2.0 | 0.00 | 0.00 | 0.00 | 71 | 1018.4 |
| 20260503012009 | 43 | 278 | 1.0 | 1.0 | 0.00 | 0.00 | 0.00 | 72 | 1018.6 |
| 20260503011008 | 43 | 271 | 1.0 | 1.0 | 0.00 | 0.00 | 0.00 | 73 | 1018.6 |
| 20260503010008 | 42 | 280 | 1.0 | 2.0 | 0.00 | 0.00 | 0.00 | 74 | 1018.6 |
| 20260503005008 | 43 | 269 | 1.0 | 2.0 | 0.00 | 0.00 | 0.00 | 73 | 1018.8 |
| 20260503004008 | 43 | 266 | 1.0 | 2.0 | 0.00 | 0.00 | 0.00 | 72 | 1018.9 |